TimeCDT,TemperatureF,Dew PointF,Humidity,Sea Level PressureIn,VisibilityMPH,Wind Direction,Wind SpeedMPH,Gust SpeedMPH,PrecipitationIn,Events,Conditions,WindDirDegrees,DateUTC
12:15 AM,60.8,48.2,63,29.86,10.0,South,9.2,-,N/A,,Overcast,170,2013-03-18 05:15:00
12:35 AM,60.8,50.0,68,29.86,10.0,South,9.2,-,N/A,,Overcast,180,2013-03-18 05:35:00
12:55 AM,60.8,51.8,72,29.85,10.0,South,10.4,-,N/A,,Overcast,170,2013-03-18 05:55:00
1:15 AM,60.8,51.8,72,29.85,10.0,South,6.9,-,N/A,,Mostly Cloudy,170,2013-03-18 06:15:00
1:35 AM,60.8,51.8,72,29.85,10.0,SSE,11.5,-,N/A,,Overcast,160,2013-03-18 06:35:00
1:55 AM,60.8,51.8,72,29.85,10.0,SSE,13.8,-,N/A,,Overcast,160,2013-03-18 06:55:00
2:15 AM,60.8,53.6,77,29.85,10.0,South,8.1,-,N/A,,Overcast,170,2013-03-18 07:15:00
2:35 AM,60.8,53.6,77,29.84,10.0,South,9.2,-,N/A,,Overcast,170,2013-03-18 07:35:00
2:55 AM,60.8,53.6,77,29.83,10.0,South,9.2,-,N/A,,Overcast,170,2013-03-18 07:55:00
3:15 AM,60.8,53.6,77,29.82,10.0,South,9.2,-,N/A,,Overcast,170,2013-03-18 08:15:00
3:35 AM,60.8,53.6,77,29.82,10.0,South,10.4,-,N/A,,Overcast,180,2013-03-18 08:35:00
3:55 AM,60.8,53.6,77,29.81,10.0,South,10.4,-,N/A,,Overcast,180,2013-03-18 08:55:00
4:15 AM,60.8,53.6,77,29.82,10.0,South,11.5,-,N/A,,Overcast,190,2013-03-18 09:15:00
4:35 AM,62.6,53.6,72,29.81,10.0,South,17.3,29.9,N/A,,Overcast,190,2013-03-18 09:35:00
4:55 AM,62.6,53.6,72,29.81,10.0,South,16.1,-,N/A,,Overcast,190,2013-03-18 09:55:00
5:15 AM,60.8,53.6,77,29.81,10.0,SSW,15.0,-,N/A,,Overcast,200,2013-03-18 10:15:00
5:35 AM,60.8,53.6,77,29.81,10.0,South,15.0,-,N/A,,Overcast,190,2013-03-18 10:35:00
5:55 AM,60.8,53.6,77,29.81,10.0,South,11.5,-,N/A,,Overcast,190,2013-03-18 10:55:00
6:15 AM,60.8,53.6,77,29.81,10.0,South,15.0,-,N/A,,Overcast,180,2013-03-18 11:15:00
6:35 AM,60.8,53.6,77,29.82,10.0,South,12.7,-,N/A,,Overcast,190,2013-03-18 11:35:00
6:55 AM,60.8,55.4,82,29.81,10.0,South,10.4,-,N/A,,Overcast,180,2013-03-18 11:55:00
7:15 AM,59.0,55.4,88,29.81,5.0,South,10.4,-,N/A,,Overcast,180,2013-03-18 12:15:00
7:35 AM,59.0,55.4,88,29.81,10.0,South,8.1,-,N/A,,Overcast,180,2013-03-18 12:35:00
7:55 AM,59.0,55.4,88,29.80,10.0,South,9.2,-,N/A,,Overcast,180,2013-03-18 12:55:00
8:15 AM,59.0,55.4,88,29.81,10.0,South,11.5,-,N/A,,Overcast,180,2013-03-18 13:15:00
8:35 AM,59.0,55.4,88,29.81,10.0,South,11.5,-,N/A,,Overcast,180,2013-03-18 13:35:00
8:55 AM,59.0,55.4,88,29.80,10.0,South,9.2,-,N/A,,Overcast,180,2013-03-18 13:55:00
9:15 AM,59.0,55.4,88,29.81,10.0,SW,4.6,-,N/A,,Overcast,230,2013-03-18 14:15:00
9:35 AM,57.2,55.4,94,29.81,2.5,SW,8.1,-,N/A,,Overcast,220,2013-03-18 14:35:00
9:55 AM,59.0,55.4,88,29.81,10.0,SSW,11.5,-,N/A,,Overcast,210,2013-03-18 14:55:00
10:15 AM,60.8,57.2,88,29.81,10.0,SSW,10.4,-,N/A,,Overcast,200,2013-03-18 15:15:00
10:35 AM,60.8,57.2,88,29.79,10.0,SSW,15.0,-,N/A,,Overcast,200,2013-03-18 15:35:00
10:55 AM,60.8,57.2,88,29.79,10.0,SSW,13.8,-,N/A,,Overcast,210,2013-03-18 15:55:00
11:15 AM,60.8,57.2,88,29.78,10.0,SSW,12.7,-,N/A,,Overcast,200,2013-03-18 16:15:00
11:35 AM,62.6,57.2,82,29.79,10.0,South,15.0,-,N/A,,Overcast,190,2013-03-18 16:35:00
11:55 AM,60.8,57.2,88,29.80,10.0,SSW,15.0,-,N/A,,Overcast,200,2013-03-18 16:55:00
12:15 PM,60.8,57.2,88,29.79,10.0,SSW,10.4,-,N/A,,Overcast,200,2013-03-18 17:15:00
12:35 PM,60.8,57.2,88,29.79,3.0,SSW,11.5,-,N/A,,Overcast,210,2013-03-18 17:35:00
12:55 PM,59.0,57.2,94,29.79,2.5,WSW,8.1,-,N/A,,Overcast,240,2013-03-18 17:55:00
1:15 PM,57.2,57.2,100,29.81,4.0,WNW,10.4,-,N/A,,Overcast,290,2013-03-18 18:15:00
1:35 PM,57.2,57.2,100,29.78,4.0,WSW,11.5,-,N/A,,Mostly Cloudy,240,2013-03-18 18:35:00
1:55 PM,57.2,55.4,94,29.78,2.5,WSW,12.7,-,N/A,,Mostly Cloudy,250,2013-03-18 18:55:00
2:15 PM,57.2,55.4,94,29.78,10.0,West,6.9,-,N/A,,Mostly Cloudy,260,2013-03-18 19:15:00
2:35 PM,57.2,55.4,94,29.78,4.0,South,5.8,-,N/A,,Mostly Cloudy,190,2013-03-18 19:35:00
2:55 PM,57.2,55.4,94,29.79,5.0,SSW,4.6,-,N/A,,Overcast,200,2013-03-18 19:55:00
3:15 PM,57.2,55.4,94,29.79,2.0,SSW,10.4,-,N/A,,Overcast,210,2013-03-18 20:15:00
3:35 PM,57.2,55.4,94,29.78,5.0,South,9.2,-,N/A,,Overcast,180,2013-03-18 20:35:00
3:55 PM,57.2,55.4,94,29.81,6.0,SW,13.8,-,N/A,,Overcast,220,2013-03-18 20:55:00
4:15 PM,55.4,53.6,94,29.74,10.0,South,6.9,-,N/A,,Mostly Cloudy,170,2013-03-18 21:15:00
4:35 PM,55.4,53.6,94,29.76,10.0,South,9.2,-,N/A,,Clear,180,2013-03-18 21:35:00
4:55 PM,55.4,53.6,94,29.77,10.0,SSW,8.1,-,N/A,,Clear,200,2013-03-18 21:55:00
5:15 PM,57.2,55.4,94,29.78,10.0,WNW,5.8,-,N/A,,Scattered Clouds,290,2013-03-18 22:15:00
5:35 PM,57.2,53.6,88,29.78,10.0,West,3.5,-,N/A,,Partly Cloudy,270,2013-03-18 22:35:00
5:55 PM,57.2,53.6,88,29.78,10.0,WSW,6.9,-,N/A,,Scattered Clouds,250,2013-03-18 22:55:00
6:15 PM,55.4,53.6,94,29.77,10.0,West,5.8,-,N/A,,Partly Cloudy,270,2013-03-18 23:15:00
6:35 PM,55.4,53.6,94,29.78,10.0,West,5.8,-,N/A,,Clear,280,2013-03-18 23:35:00
6:55 PM,55.4,53.6,94,29.80,10.0,West,4.6,-,N/A,,Scattered Clouds,270,2013-03-18 23:55:00
7:15 PM,55.4,53.6,94,29.80,10.0,West,3.5,-,N/A,,Mostly Cloudy,270,2013-03-19 00:15:00
7:35 PM,55.4,53.6,94,29.81,10.0,WNW,3.5,-,N/A,,Mostly Cloudy,290,2013-03-19 00:35:00
7:55 PM,55.4,53.6,94,29.82,10.0,West,4.6,-,N/A,,Overcast,280,2013-03-19 00:55:00
8:15 PM,55.4,53.6,94,29.82,10.0,WNW,5.8,-,N/A,,Overcast,300,2013-03-19 01:15:00
8:35 PM,55.4,51.8,88,29.84,10.0,NW,11.5,-,N/A,,Mostly Cloudy,310,2013-03-19 01:35:00
8:55 PM,53.6,50.0,88,29.85,10.0,NW,10.4,-,N/A,,Mostly Cloudy,310,2013-03-19 01:55:00
9:15 PM,53.6,48.2,82,29.87,10.0,NW,12.7,-,N/A,,Mostly Cloudy,320,2013-03-19 02:15:00
9:35 PM,51.8,48.2,88,29.88,10.0,NNW,12.7,-,N/A,,Overcast,340,2013-03-19 02:35:00
9:55 PM,50.0,46.4,87,29.90,10.0,North,12.7,-,N/A,,Overcast,350,2013-03-19 02:55:00
10:15 PM,48.2,46.4,93,29.92,10.0,North,15.0,-,N/A,,Overcast,350,2013-03-19 03:15:00
10:55 PM,48.2,44.6,87,29.94,10.0,North,8.1,-,N/A,,Overcast,360,2013-03-19 03:55:00
11:15 PM,46.4,42.8,87,29.96,10.0,NNW,12.7,-,N/A,,Mostly Cloudy,340,2013-03-19 04:15:00
11:35 PM,46.4,39.2,76,29.97,10.0,North,10.4,-,N/A,,Clear,350,2013-03-19 04:35:00
11:55 PM,44.6,41.0,87,29.98,10.0,NNW,11.5,-,N/A,,Clear,340,2013-03-19 04:55:00